Tracking 29933 objects as of 2-Dec-2024
HD Live streaming from Space Station
objects crossing your sky now

STARLINK-32373

Track STARLINK-32373 now!
10-day predictions
STARLINK-32373 is classified as:


NORAD ID: 60923
Int'l Code: 2024-154W
Perigee: 482.1 km
Apogee: 482.6 km
Inclination: 53.2 °
Period: 94.1 minutes
Semi major axis: 6853 km
RCS: Unknown
Launch date: August 31, 2024
Source: United States (US)
Launch site: AIR FORCE EASTERN TEST RANGE (AFETR)
Your satellite tracking list
Your tracking list is empty




NASA's NSSDC Master Catalog

Two Line Element Set (TLE):
1 60923U 24154W   24336.55117976 -.00000811  00000-0 -15283-4 0  9990
2 60923  53.1629 275.2644 0000398 311.1922  48.9044 15.30196572 15438
Source of the keplerian elements: AFSPC